Back to catalog

STARLINK-30442

AliveCommunicationsVLEO
NORAD 57868·PAYLOAD·🇺🇸 United States

Launched Sep 16, 2023 from Cape Canaveral Space Force Station

Loading…

Next Passes (next 24 hours)

TLE

FreshSource: CelesTrak SupGP

Epoch: Sep 14, 2026, 21:42 UTC

1 57868C 23144E   26257.90465278 -.00000018  00000+0 -64563-6 0  2578
2 57868  43.0026 296.5793 0001414 268.9138 153.0857 15.27574247    13

Track STARLINK-30442 in real time with AllMySat

Download on the App Store